Darstellungsparameter: Aktuell verwendete Einstellungen:
Skalierung der Graphiken ... ?
xyx+y,   Skalierungsfaktor:      Skalierung: Modus: x, Faktor: 1
Darstellungszeitraum ... ?
Vom - - bis: - -   Zeitraum: 15.07.2019 - 15.07.2019
Min/Max/Avg-Anzeige ... ?
Zeige MMA aktuell
Zeige MMA Monat
Zeige MMA alles
Zeige --A aktuell
Zeige --A Monat
Zeige --A alles
Keine MMA-Anzeige
MMA:
Keine MMA-Graphiken
MMA-Basis: 15.07.2019 - 15.07.2019
Quicknavigation für Darstellung... ?
Tage:      1T, 2T, 3T, 5T -1T -2T -3T -5T +1T +2T +3T +5T
Wochen: 1W, 2W, 3W -1W -2W -3W +1W +2W +3W
Monate: 1M, 3M, 6M -1M -3M -6M +1M +3M +6M
Jahre:    1J, 3J, 5J, 10J -1J -3J -5J -10J +1J +3J +5J +10J
Nutze für die Darstellung ... ?
Originaldaten oder Mittelwerte auf ...
Stundenbasis Tagesbasis Wochenbasis
Monatsbasis Jahresbasis      Datenbasis: Original-Daten
Darstellen als:
Statistik (Auto) Statistik J:M      Darstellung:
Zur Graphik,    zurück zur Übersicht aller Sensoren.
 
Tabellarische Datenbersicht: ?
 
Sensor: Nr:Datum:Temp:Feuchte:Taupunkt:
Aussen-T/F 1 15-07-2019 00:00:00 16.4 C 76 % 12.16 C
2 15-07-2019 00:05:00 16.3 C 74 % 11.66 C
3 15-07-2019 00:10:00 16.3 C 76 % 12.07 C
4 15-07-2019 00:15:00 16.2 C 74 % 11.56 C
5 15-07-2019 00:20:00 16.2 C 75 % 11.77 C
6 15-07-2019 00:25:00 16.2 C 77 % 12.17 C
7 15-07-2019 00:30:00 16.1 C 77 % 12.07 C
8 15-07-2019 00:35:00 16 C 78 % 12.17 C
9 15-07-2019 00:40:00 15.9 C 78 % 12.07 C
10 15-07-2019 00:45:00 15.8 C 78 % 11.97 C
11 15-07-2019 00:50:00 15.7 C 79 % 12.07 C
12 15-07-2019 00:55:00 15.7 C 79 % 12.07 C
13 15-07-2019 01:00:00 15.6 C 80 % 12.16 C
14 15-07-2019 01:05:00 15.5 C 80 % 12.07 C
15 15-07-2019 01:10:00 15.4 C 80 % 11.97 C
16 15-07-2019 01:15:00 15.4 C 81 % 12.16 C
17 15-07-2019 01:20:00 15.4 C 81 % 12.16 C
18 15-07-2019 01:25:00 15.4 C 79 % 11.78 C
19 15-07-2019 01:30:00 15.6 C 78 % 11.78 C
20 15-07-2019 01:35:00 15.8 C 77 % 11.78 C
21 15-07-2019 01:40:00 15.8 C 77 % 11.78 C
22 15-07-2019 01:45:00 15.9 C 78 % 12.07 C
23 15-07-2019 01:50:00 15.9 C 77 % 11.88 C
24 15-07-2019 01:55:00 15.9 C 77 % 11.88 C
25 15-07-2019 02:00:00 15.8 C 77 % 11.78 C
Sensor: Nr:Datum:Temp:Feuchte:Taupunkt:
Aussen-T/F 26 15-07-2019 02:05:00 15.8 C 78 % 11.97 C
27 15-07-2019 02:10:00 15.8 C 79 % 12.17 C
28 15-07-2019 02:15:00 15.8 C 80 % 12.36 C
29 15-07-2019 02:20:00 15.7 C 80 % 12.26 C
30 15-07-2019 02:25:00 15.7 C 81 % 12.45 C
31 15-07-2019 02:30:00 15.6 C 81 % 12.35 C
32 15-07-2019 02:35:00 15.4 C 81 % 12.16 C
33 15-07-2019 02:40:00 15.4 C 81 % 12.16 C
34 15-07-2019 02:45:00 15.3 C 82 % 12.25 C
35 15-07-2019 02:50:00 15.2 C 82 % 12.15 C
36 15-07-2019 02:55:00 15.2 C 82 % 12.15 C
37 15-07-2019 03:00:00 15.2 C 83 % 12.33 C
38 15-07-2019 03:05:00 15.1 C 83 % 12.24 C
39 15-07-2019 03:10:00 15.1 C 83 % 12.24 C
40 15-07-2019 03:15:00 15.1 C 83 % 12.24 C
41 15-07-2019 03:20:00 15 C 84 % 12.32 C
42 15-07-2019 03:25:00 15 C 83 % 12.14 C
43 15-07-2019 03:30:00 14.9 C 84 % 12.22 C
44 15-07-2019 03:35:00 14.9 C 84 % 12.22 C
45 15-07-2019 03:40:00 14.9 C 84 % 12.22 C
46 15-07-2019 03:45:00 14.9 C 83 % 12.04 C
47 15-07-2019 03:50:00 14.9 C 84 % 12.22 C
48 15-07-2019 03:55:00 14.9 C 84 % 12.22 C
49 15-07-2019 04:00:00 14.8 C 82 % 11.76 C
50 15-07-2019 04:05:00 14.8 C 80 % 11.39 C
Sensor: Nr:Datum:Temp:Feuchte:Taupunkt:
Aussen-T/F 51 15-07-2019 04:10:00 14.9 C 78 % 11.1 C
52 15-07-2019 04:15:00 15.2 C 77 % 11.2 C
53 15-07-2019 04:20:00 15.3 C 78 % 11.49 C
54 15-07-2019 04:25:00 15.4 C 78 % 11.59 C
55 15-07-2019 04:30:00 15.5 C 78 % 11.68 C
56 15-07-2019 04:35:00 15.5 C 78 % 11.68 C
57 15-07-2019 04:40:00 15.5 C 78 % 11.68 C
58 15-07-2019 04:45:00 15.6 C 78 % 11.78 C
59 15-07-2019 04:50:00 15.6 C 77 % 11.59 C
60 15-07-2019 04:55:00 15.6 C 77 % 11.59 C
61 15-07-2019 05:00:00 15.6 C 75 % 11.19 C
62 15-07-2019 05:05:00 15.7 C 75 % 11.28 C
63 15-07-2019 05:10:00 15.7 C 74 % 11.08 C
64 15-07-2019 05:15:00 15.7 C 74 % 11.08 C
65 15-07-2019 05:20:00 15.7 C 74 % 11.08 C
66 15-07-2019 05:25:00 15.7 C 75 % 11.28 C
67 15-07-2019 05:30:00 15.7 C 76 % 11.48 C
68 15-07-2019 05:35:00 15.6 C 75 % 11.19 C
69 15-07-2019 05:40:00 15.6 C 74 % 10.99 C
70 15-07-2019 05:45:00 15.6 C 74 % 10.99 C
71 15-07-2019 05:50:00 15.6 C 74 % 10.99 C
72 15-07-2019 05:55:00 15.6 C 73 % 10.78 C
73 15-07-2019 06:00:00 15.6 C 74 % 10.99 C
74 15-07-2019 06:05:00 15.6 C 74 % 10.99 C
75 15-07-2019 06:10:00 15.6 C 74 % 10.99 C
Sensor: Nr:Datum:Temp:Feuchte:Taupunkt:
Aussen-T/F 76 15-07-2019 06:15:00 15.6 C 74 % 10.99 C
77 15-07-2019 06:20:00 15.6 C 74 % 10.99 C
78 15-07-2019 06:25:00 15.6 C 74 % 10.99 C
79 15-07-2019 06:30:00 15.6 C 74 % 10.99 C
80 15-07-2019 06:35:00 15.6 C 74 % 10.99 C
81 15-07-2019 06:40:00 15.6 C 74 % 10.99 C
82 15-07-2019 06:45:00 15.6 C 74 % 10.99 C
83 15-07-2019 06:50:00 15.6 C 75 % 11.19 C
84 15-07-2019 06:55:00 15.6 C 75 % 11.19 C
85 15-07-2019 07:00:00 15.6 C 75 % 11.19 C
86 15-07-2019 07:05:00 15.7 C 75 % 11.28 C
87 15-07-2019 07:10:00 15.7 C 75 % 11.28 C
88 15-07-2019 07:15:00 15.7 C 74 % 11.08 C
89 15-07-2019 07:20:00 15.7 C 75 % 11.28 C
90 15-07-2019 07:25:00 15.7 C 74 % 11.08 C
91 15-07-2019 07:30:00 15.7 C 73 % 10.88 C
92 15-07-2019 07:35:00 15.7 C 73 % 10.88 C
93 15-07-2019 07:40:00 15.7 C 73 % 10.88 C
94 15-07-2019 07:45:00 15.7 C 73 % 10.88 C
95 15-07-2019 07:50:00 15.7 C 74 % 11.08 C
96 15-07-2019 07:55:00 15.7 C 74 % 11.08 C
97 15-07-2019 08:00:00 15.7 C 74 % 11.08 C
98 15-07-2019 08:05:00 15.7 C 74 % 11.08 C
99 15-07-2019 08:10:00 15.7 C 75 % 11.28 C
100 15-07-2019 08:15:00 15.7 C 74 % 11.08 C
Sensor: Nr:Datum:Temp:Feuchte:Taupunkt:
Aussen-T/F 101 15-07-2019 08:20:00 15.7 C 74 % 11.08 C
102 15-07-2019 08:25:00 15.7 C 74 % 11.08 C
103 15-07-2019 08:30:00 15.8 C 74 % 11.18 C
104 15-07-2019 08:35:00 15.8 C 75 % 11.38 C
105 15-07-2019 08:40:00 15.9 C 74 % 11.28 C
106 15-07-2019 08:45:00 16 C 74 % 11.37 C
107 15-07-2019 08:50:00 16.1 C 73 % 11.26 C
108 15-07-2019 08:55:00 16.2 C 74 % 11.56 C
109 15-07-2019 09:00:00 16.3 C 73 % 11.46 C
110 15-07-2019 09:05:00 16.3 C 73 % 11.46 C
111 15-07-2019 09:10:00 16.3 C 72 % 11.25 C
112 15-07-2019 09:15:00 16.4 C 72 % 11.34 C
113 15-07-2019 09:20:00 16.4 C 71 % 11.13 C
114 15-07-2019 09:25:00 16.5 C 72 % 11.44 C
115 15-07-2019 09:30:00 16.6 C 72 % 11.54 C
116 15-07-2019 09:35:00 16.7 C 70 % 11.21 C
117 15-07-2019 09:40:00 16.7 C 70 % 11.21 C
118 15-07-2019 09:45:00 16.7 C 72 % 11.63 C
119 15-07-2019 09:50:00 16.7 C 70 % 11.21 C
120 15-07-2019 09:55:00 16.8 C 70 % 11.3 C
121 15-07-2019 10:00:00 16.8 C 70 % 11.3 C
122 15-07-2019 10:05:00 16.8 C 70 % 11.3 C
123 15-07-2019 10:10:00 16.8 C 69 % 11.09 C
124 15-07-2019 10:15:00 16.8 C 69 % 11.09 C
125 15-07-2019 10:20:00 16.8 C 70 % 11.3 C
Sensor: Nr:Datum:Temp:Feuchte:Taupunkt:
Aussen-T/F 126 15-07-2019 10:25:00 16.8 C 72 % 11.73 C
127 15-07-2019 10:30:00 16.8 C 74 % 12.14 C
128 15-07-2019 10:35:00 16.8 C 74 % 12.14 C
129 15-07-2019 10:40:00 16.8 C 74 % 12.14 C
130 15-07-2019 10:45:00 16.8 C 75 % 12.35 C
131 15-07-2019 10:50:00 16.8 C 75 % 12.35 C
132 15-07-2019 10:55:00 16.8 C 74 % 12.14 C
133 15-07-2019 11:00:00 16.8 C 75 % 12.35 C
134 15-07-2019 11:05:00 16.8 C 74 % 12.14 C
135 15-07-2019 11:10:00 16.8 C 74 % 12.14 C
136 15-07-2019 11:15:00 16.8 C 75 % 12.35 C
137 15-07-2019 11:20:00 16.8 C 74 % 12.14 C
138 15-07-2019 11:25:00 16.8 C 74 % 12.14 C
139 15-07-2019 11:30:00 16.8 C 74 % 12.14 C
140 15-07-2019 11:35:00 16.8 C 74 % 12.14 C
141 15-07-2019 11:40:00 16.9 C 75 % 12.44 C
142 15-07-2019 11:45:00 16.9 C 75 % 12.44 C
143 15-07-2019 11:50:00 16.9 C 75 % 12.44 C
144 15-07-2019 11:55:00 17 C 74 % 12.34 C
145 15-07-2019 12:00:00 17 C 74 % 12.34 C
146 15-07-2019 12:05:00 17 C 74 % 12.34 C
147 15-07-2019 12:10:00 17.1 C 73 % 12.23 C
148 15-07-2019 12:15:00 17 C 72 % 11.92 C
149 15-07-2019 12:20:00 17.1 C 72 % 12.02 C
150 15-07-2019 12:25:00 17.1 C 73 % 12.23 C
Sensor: Nr:Datum:Temp:Feuchte:Taupunkt:
Aussen-T/F 151 15-07-2019 12:30:00 17.1 C 73 % 12.23 C
152 15-07-2019 12:35:00 17.2 C 73 % 12.32 C
153 15-07-2019 12:40:00 17.2 C 72 % 12.11 C
154 15-07-2019 12:45:00 17.2 C 72 % 12.11 C
155 15-07-2019 12:50:00 17.2 C 73 % 12.32 C
156 15-07-2019 12:55:00 17.1 C 73 % 12.23 C
157 15-07-2019 13:00:00 17.2 C 72 % 12.11 C
158 15-07-2019 13:05:00 17.2 C 71 % 11.9 C
159 15-07-2019 13:10:00 17.2 C 72 % 12.11 C
160 15-07-2019 13:15:00 17.3 C 70 % 11.78 C
161 15-07-2019 13:20:00 17.3 C 70 % 11.78 C
162 15-07-2019 13:25:00 17.4 C 70 % 11.88 C
163 15-07-2019 13:30:00 17.6 C 70 % 12.07 C
164 15-07-2019 13:35:00 17.6 C 69 % 11.85 C
165 15-07-2019 13:40:00 17.7 C 69 % 11.95 C
166 15-07-2019 13:45:00 17.8 C 68 % 11.82 C
167 15-07-2019 13:50:00 17.8 C 68 % 11.82 C
168 15-07-2019 13:55:00 17.8 C 68 % 11.82 C
169 15-07-2019 14:00:00 17.9 C 68 % 11.91 C
170 15-07-2019 14:05:00 17.9 C 67 % 11.69 C
171 15-07-2019 14:10:00 18.1 C 66 % 11.65 C
172 15-07-2019 14:15:00 18.1 C 66 % 11.65 C
173 15-07-2019 14:20:00 18.2 C 66 % 11.75 C
174 15-07-2019 14:25:00 18.1 C 66 % 11.65 C
175 15-07-2019 14:30:00 18.2 C 66 % 11.75 C
Sensor: Nr:Datum:Temp:Feuchte:Taupunkt:
Aussen-T/F 176 15-07-2019 14:35:00 18.2 C 66 % 11.75 C
177 15-07-2019 14:40:00 18.2 C 66 % 11.75 C
178 15-07-2019 14:45:00 18.1 C 66 % 11.65 C
179 15-07-2019 14:50:00 18.1 C 66 % 11.65 C
180 15-07-2019 14:55:00 18 C 67 % 11.79 C
181 15-07-2019 15:00:00 18.1 C 67 % 11.88 C
182 15-07-2019 15:05:00 18.1 C 66 % 11.65 C
183 15-07-2019 15:10:00 17.9 C 67 % 11.69 C
184 15-07-2019 15:15:00 17.9 C 67 % 11.69 C
185 15-07-2019 15:20:00 17.7 C 68 % 11.72 C
186 15-07-2019 15:25:00 17.7 C 68 % 11.72 C
187 15-07-2019 15:30:00 17.6 C 67 % 11.4 C
188 15-07-2019 15:35:00 17.6 C 68 % 11.63 C
189 15-07-2019 15:40:00 17.4 C 68 % 11.44 C
190 15-07-2019 15:45:00 17.4 C 69 % 11.66 C
191 15-07-2019 15:50:00 17.4 C 70 % 11.88 C
192 15-07-2019 15:55:00 17.4 C 70 % 11.88 C
193 15-07-2019 16:00:00 17.4 C 69 % 11.66 C
194 15-07-2019 16:05:00 17.3 C 69 % 11.56 C
195 15-07-2019 16:10:00 17.3 C 70 % 11.78 C
196 15-07-2019 16:15:00 17.2 C 70 % 11.68 C
197 15-07-2019 16:20:00 17.2 C 70 % 11.68 C
198 15-07-2019 16:25:00 17.1 C 71 % 11.8 C
199 15-07-2019 16:30:00 17.1 C 71 % 11.8 C
200 15-07-2019 16:35:00 17.1 C 71 % 11.8 C
Sensor: Nr:Datum:Temp:Feuchte:Taupunkt:
Aussen-T/F 201 15-07-2019 16:40:00 17 C 71 % 11.71 C
202 15-07-2019 16:45:00 16.9 C 71 % 11.61 C
203 15-07-2019 16:50:00 16.9 C 71 % 11.61 C
204 15-07-2019 16:55:00 16.9 C 72 % 11.82 C
205 15-07-2019 17:00:00 16.9 C 71 % 11.61 C
206 15-07-2019 17:05:00 16.9 C 71 % 11.61 C
207 15-07-2019 17:10:00 16.9 C 71 % 11.61 C
208 15-07-2019 17:15:00 16.9 C 72 % 11.82 C
209 15-07-2019 17:20:00 16.8 C 71 % 11.52 C
210 15-07-2019 17:25:00 16.8 C 72 % 11.73 C
211 15-07-2019 17:30:00 16.8 C 72 % 11.73 C
212 15-07-2019 17:35:00 16.7 C 72 % 11.63 C
213 15-07-2019 17:40:00 16.7 C 72 % 11.63 C
214 15-07-2019 17:45:00 16.7 C 72 % 11.63 C
215 15-07-2019 17:50:00 16.6 C 72 % 11.54 C
216 15-07-2019 17:55:00 16.6 C 72 % 11.54 C
217 15-07-2019 18:00:00 16.6 C 72 % 11.54 C
218 15-07-2019 18:05:00 16.7 C 72 % 11.63 C
219 15-07-2019 18:10:00 16.6 C 72 % 11.54 C
220 15-07-2019 18:15:00 16.6 C 72 % 11.54 C
221 15-07-2019 18:20:00 16.6 C 72 % 11.54 C
222 15-07-2019 18:25:00 16.6 C 72 % 11.54 C
223 15-07-2019 18:30:00 16.7 C 72 % 11.63 C
224 15-07-2019 18:35:00 16.7 C 71 % 11.42 C
225 15-07-2019 18:40:00 16.7 C 71 % 11.42 C
Sensor: Nr:Datum:Temp:Feuchte:Taupunkt:
Aussen-T/F 226 15-07-2019 18:45:00 16.8 C 71 % 11.52 C
227 15-07-2019 18:50:00 16.8 C 71 % 11.52 C
228 15-07-2019 18:55:00 16.9 C 71 % 11.61 C
229 15-07-2019 19:00:00 16.9 C 70 % 11.4 C
230 15-07-2019 19:05:00 16.9 C 71 % 11.61 C
231 15-07-2019 19:10:00 16.8 C 71 % 11.52 C
232 15-07-2019 19:15:00 16.8 C 71 % 11.52 C
233 15-07-2019 19:20:00 16.8 C 71 % 11.52 C
234 15-07-2019 19:25:00 16.8 C 72 % 11.73 C
235 15-07-2019 19:30:00 16.8 C 71 % 11.52 C
236 15-07-2019 19:35:00 16.8 C 71 % 11.52 C
237 15-07-2019 19:40:00 16.7 C 71 % 11.42 C
238 15-07-2019 19:45:00 16.7 C 71 % 11.42 C
239 15-07-2019 19:50:00 16.7 C 71 % 11.42 C
240 15-07-2019 19:55:00 16.7 C 71 % 11.42 C
241 15-07-2019 20:00:00 16.7 C 70 % 11.21 C
242 15-07-2019 20:05:00 16.7 C 71 % 11.42 C
243 15-07-2019 20:10:00 16.7 C 71 % 11.42 C
244 15-07-2019 20:15:00 16.7 C 71 % 11.42 C
245 15-07-2019 20:20:00 16.7 C 71 % 11.42 C
246 15-07-2019 20:25:00 16.7 C 71 % 11.42 C
247 15-07-2019 20:30:00 16.7 C 71 % 11.42 C
248 15-07-2019 20:35:00 16.7 C 71 % 11.42 C
249 15-07-2019 20:40:00 16.7 C 72 % 11.63 C
250 15-07-2019 20:45:00 16.7 C 71 % 11.42 C
Sensor: Nr:Datum:Temp:Feuchte:Taupunkt:
Aussen-T/F 251 15-07-2019 20:50:00 16.7 C 71 % 11.42 C
252 15-07-2019 20:55:00 16.6 C 72 % 11.54 C
253 15-07-2019 21:00:00 16.6 C 72 % 11.54 C
254 15-07-2019 21:05:00 16.5 C 72 % 11.44 C
255 15-07-2019 21:10:00 16.4 C 72 % 11.34 C
256 15-07-2019 21:15:00 16.4 C 73 % 11.55 C
257 15-07-2019 21:20:00 16.4 C 73 % 11.55 C
258 15-07-2019 21:25:00 16.3 C 73 % 11.46 C
259 15-07-2019 21:30:00 16.3 C 73 % 11.46 C
260 15-07-2019 21:35:00 16.3 C 73 % 11.46 C
261 15-07-2019 21:40:00 16.3 C 76 % 12.07 C
262 15-07-2019 21:45:00 16.3 C 77 % 12.26 C
263 15-07-2019 21:50:00 16.2 C 77 % 12.17 C
264 15-07-2019 21:55:00 16.1 C 76 % 11.87 C
265 15-07-2019 22:00:00 16 C 77 % 11.97 C
266 15-07-2019 22:05:00 15.9 C 78 % 12.07 C
267 15-07-2019 22:10:00 15.8 C 78 % 11.97 C
268 15-07-2019 22:15:00 15.8 C 79 % 12.17 C
269 15-07-2019 22:20:00 15.7 C 80 % 12.26 C
270 15-07-2019 22:25:00 15.6 C 80 % 12.16 C
271 15-07-2019 22:30:00 15.6 C 80 % 12.16 C
272 15-07-2019 22:35:00 15.5 C 81 % 12.26 C
273 15-07-2019 22:40:00 15.4 C 80 % 11.97 C
274 15-07-2019 22:45:00 15.4 C 81 % 12.16 C
275 15-07-2019 22:50:00 15.4 C 81 % 12.16 C
Sensor: Nr:Datum:Temp:Feuchte:Taupunkt:
Aussen-T/F 276 15-07-2019 22:55:00 15.3 C 79 % 11.68 C
277 15-07-2019 23:00:00 15.3 C 79 % 11.68 C
278 15-07-2019 23:05:00 15.3 C 78 % 11.49 C
279 15-07-2019 23:10:00 15.4 C 77 % 11.39 C
280 15-07-2019 23:15:00 15.5 C 77 % 11.49 C
281 15-07-2019 23:20:00 15.6 C 77 % 11.59 C
282 15-07-2019 23:25:00 15.6 C 77 % 11.59 C
283 15-07-2019 23:30:00 15.6 C 77 % 11.59 C
284 15-07-2019 23:35:00 15.6 C 76 % 11.39 C
285 15-07-2019 23:40:00 15.5 C 77 % 11.49 C
286 15-07-2019 23:45:00 15.4 C 77 % 11.39 C
287 15-07-2019 23:50:00 15.3 C 77 % 11.3 C
288 15-07-2019 23:55:00 15.2 C 78 % 11.39 C

Legende:
   Min
   Max


Maximal/Minimal-Werte vom 15.07.2019 - 15.07.2019

Sensor Min Max Avg
Temp
(Aussen-T/F)
14.8 °C
15-07-2019  04:00:00
18.2 °C
15-07-2019  14:20:00
16.35 °C
Feuchte
(Aussen-T/F)
66 %
15-07-2019  14:10:00
84 %
15-07-2019  03:20:00
73.98 %
Taupunkt
(Aussen-T/F)
10.78 C
15-07-2019  05:55:00
12.45 C
15-07-2019  02:25:00
11.64 C

Die Daten stammen von einer Davis Vantage Pro 2 Wetter-Station und werden unter Linux mit der Software wview2wettercgi und aufbereitet. Alle Angaben erfolgen ohne Gewähr für ihre Vollständigkeit oder Richtigkeit.
Kontakt: Rainer Krienke krienke@uni-koblenz.de . Meine Webseiten an der Uni Koblenz oder privat.
Version: $Revision: 0.78 $